Regional Weather Roundup
Issued by NWS

Home | Current Version | Previous Version | Graphics & Text | Print | Product List | Glossary On
Versions: 1 2 3 4 5 6 7 8 9 10 11 12 13 14 15 16 17 18 19 20 21 22 23 24 25 26 27 28 29 30 31 32 33 34 35 36 37 38 39 40 41 42 43 44 45 46 47 48 49 50
000
ASUS43 KLMK 041402
RWRKY
KENTUCKY REGIONAL WEATHER ROUNDUP
NATIONAL WEATHER SERVICE LOUISVILLE KY
1000 AM EDT MON MAY 04 2015

NOTE "FAIR" INDICATES FEW OR NO CLOUDS BELOW 12,000 FEET
WITH NO SIGNIFICANT WEATHER AND/OR OBSTRUCTIONS TO VISIBILITY.

KYZ001>023-026-027-061>063-070>075-041500-
WESTERN AND SOUTH CENTRAL KENTUCKY

CITY           SKY/WX    TMP DP  RH WIND       PRES   REMARKS
PADUCAH        PTSUNNY   70  56  61 SW5       30.18R
HENDERSON      CLOUDY    66  52  59 SW13      30.17R
OWENSBORO      PTSUNNY   68  56  65 SW9       30.19R
HOPKINSVILLE   SUNNY     72  56  56 SW12      30.21R
BOWLING GREEN  PTSUNNY   72  53  51 SW10      30.23R
GLASGOW        NOT AVBL
$$

KYZ024-025-028>034-038-045-046-053-041500-
NORTH CENTRAL KENTUCKY

CITY           SKY/WX    TMP DP  RH WIND       PRES   REMARKS
LOUISVILLE/SDF MOSUNNY   71  52  50 S10       30.19S
LOUISVILLE/LOU MOSUNNY   69  53  56 S6        30.20R
FORT KNOX      NOT AVBL
$$

KYZ035>037-039>044-047>052-055>060-089>105-041500-
NORTHEAST KENTUCKY

CITY           SKY/WX    TMP DP  RH WIND       PRES   REMARKS
LEXINGTON      SUNNY     69  53  56 SW12      30.24R
COVINGTON      PTSUNNY   69  52  54 SW8       30.19R
FRANKFORT      SUNNY     70  52  52 SW10      30.21R
$$

KYZ054-064>069-076>088-106>120-041500-
SOUTHEAST KENTUCKY

CITY           SKY/WX    TMP DP  RH WIND       PRES   REMARKS
JACKSON        SUNNY     67  49  52 VRB3      30.27R
LONDON         SUNNY     70  48  45 SW7       30.27R
SOMERSET       NOT AVBL
MIDDLESBORO    SUNNY     61  51  68 CALM      30.30R
MONTICELLO     SUNNY     71  56  59 CALM      30.30R
$$



USA.gov is the U.S. government's official web portal to all federal, state and local government web resources and services.